This demonstration page uses our WeatherBlox Daily Observations layout. Learn more.

Left ArrowRight Arrow

Hourly Observations for March 9, 2020

Temp ( °F °C ) Dew Point ( °F °C ) Humidity (%) Winds ( mph kmh ) Pressure ( in mb ) Visibility ( mi km ) Precip ( " mm )
12:53 am 00:53 Clear 40 4.4 31 -0.6 70 70 N N/A 30.34 1028 10 16.0934 N/A
1:53 am 01:53 Clear 39 3.9 29 -1.7 67 67 N N/A 30.34 1028 10 16.0934 N/A
2:53 am 02:53 Clear 52 11.1 29 -1.7 41 41 SW 5 7 30.34 1027 10 16.0934 N/A
3:53 am 03:53 Clear 53 11.7 28 -2.2 38 38 SSW 7 11 30.33 1027 10 16.0934 N/A
4:53 am 04:53 Clear 53 11.7 28 -2.2 38 38 VRB 6 9 30.33 1027 10 16.0934 N/A
5:53 am 05:53 Clear 51 10.6 29 -1.7 43 43 S 3 6 30.34 1027 10 16.0934 N/A
6:53 am 06:53 Clear 48 8.9 31 -0.6 52 52 S 5 7 30.35 1028 10 16.0934 N/A
7:53 am 07:53 Clear 50 10 29 -1.7 44 44 S 6 9 30.35 1028 10 16.0934 N/A
8:53 am 08:53 Sunny 51 10.6 29 -1.7 43 43 SSW 6 9 30.37 1028 10 16.0934 N/A
9:53 am 09:53 Sunny 54 12.2 30 -1.1 40 40 SSW 8 13 30.37 1029 10 16.0934 N/A
10:53 am 10:53 Sunny 56 13.3 33 0.6 42 42 SSW 8 13 30.37 1028 10 16.0934 N/A
11:53 am 11:53 Sunny 62 16.7 37 2.8 40 40 SW 12 19 30.36 1028 10 16.0934 N/A
12:53 pm 12:53 Mostly Sunny 63 17.2 35 1.7 35 35 SW 9 15 30.35 1028 10 16.0934 N/A
1:53 pm 13:53 Sunny 64 17.8 37 2.8 37 37 S 10 17 30.32 1027 10 16.0934 N/A
2:53 pm 14:53 Sunny 65 18.3 38 3.3 37 37 VRB 6 9 30.27 1025 10 16.0934 N/A
3:53 pm 15:53 Sunny 66 18.9 37 2.8 34 34 S 8 13 30.23 1024 10 16.0934 N/A
4:53 pm 16:53 Sunny 66 18.9 34 1.1 30 30 SSW 9 15 30.21 1023 10 16.0934 N/A
5:53 pm 17:53 Mostly Cloudy 64 17.8 37 2.8 37 37 SSW 10 17 30.2 1023 10 16.0934 N/A
6:53 pm 18:53 Mostly Sunny 63 17.2 40 4.4 43 43 VRB 6 9 30.19 1022 10 16.0934 N/A
7:53 pm 19:53 Clear 63 17.2 42 5.6 47 47 SSW 9 15 30.19 1023 10 16.0934 N/A
8:53 pm 20:53 Partly Cloudy 63 17.2 42 5.6 47 47 S 12 19 30.16 1021 10 16.0934 N/A
9:53 pm 21:53 Mostly Cloudy 62 16.7 43 6.1 50 50 VRB 7 11 30.16 1021 10 16.0934 N/A
10:53 pm 22:53 Cloudy 62 16.7 44 6.7 52 52 SSW 10 17 30.15 1021 10 16.0934 0.001 0.001
11:53 pm 23:53 Cloudy 60 15.6 46 7.8 60 60 S 13 20 30.12 1020 10 16.0934 0.001 0.001

Powered by AerisWeather